Powrót do katalogu

ARIANE 1 DEB

LostHEO
NORAD 26535·DEBRIS·🇫🇷 France

Wystrzelony Dec 24, 1979 z Guiana Space Centre

Loading…

Następne Przeloty (najbliższe 24 godziny)

TLE

NieaktualneSource: Space-Track

Epoka: Jan 20, 2026, 00:27 UTC

1 26535U 79104R   26020.01928243  .00008863  00000-0  64818-2 0  9995
2 26535  19.7649 302.5813 5873784 209.2436  98.6241  4.14593032188423

Śledź ARIANE 1 DEB w czasie rzeczywistym z AllMySat

Download on the App Store